Volver al catálogo

STARLINK-11306

ActivoComunicacionesVLEO
NORAD 61254·PAYLOAD·🇺🇸 United States

Lanzado Sep 25, 2024 desde Vandenberg Space Force Base

Loading…

Próximos Pases (próximas 24 horas)

TLE

ActualizadoSource: CelesTrak SupGP

Época: Sep 14, 2026, 22:30 UTC

1 61254C 24175M   26257.93798611  .00019594  00000+0  16134-3 0  2575
2 61254  53.1573 203.4698 0001216  96.3377  68.8590 15.69709482    19

Sigue STARLINK-11306 en tiempo real con AllMySat

Download on the App Store